Location: S�tio Afonso Gruber
(26.1760°S, 49.5250°W)
Time: 21:27:16
(UTC+00:00)

Cosmos 2016 Rocket - Pass Details

Date: 09 October 2020
Orbit: 946 x 1001 km, 83.0° (Epoch: 27 October)

Event Time Altitude Azimuth Distance (km) Brightness Sun altitude
Exits shadow 05:17:08 - 71° (ENE) 2,961 6.8 -44.3°
Reaches altitude 10° 05:19:20 10° 90° (E) 2,742 6.7 -44.0°
Maximum altitude 05:20:07 10° 97° (E) 2,727 6.8 -43.8°
Drops below altitude 10° 05:20:55 10° 105° (ESE) 2,750 6.9 -43.7°
Sets 05:26:27 0° 144° (SE) 3,727 7.8 -42.7°
